Back to catalog

DELTA 1 DEB

AliveLEO
NORAD 10478·DEBRIS·🇺🇸 United States

Launched Jul 14, 1977 from Cape Canaveral Space Force Station

Loading…

Next Passes (next 24 hours)

TLE

FreshSource: Space-Track

Epoch: Sep 14, 2026, 13:27 UTC

1 10478U 77065EL  26257.56060297  .00002839  00000-0  32748-3 0  9991
2 10478  29.2549  72.1404 0422040 274.1595  81.0878 14.35169847450498

Track DELTA 1 DEB in real time with AllMySat

Download on the App Store